Weerstation Grootegast  Weerstation Grootegast


15 daagse weersverwachting Bad Ischl (AT)

  • Overzicht
  • Per uur
  • 15 dagen
  • Extra
  • Vergelijk
  • Kaarten
  • Dagkaart
  • Meer »
  • Info
  • Statistieken
  • Directe link
    Temp 6h Neerslag Wind  
 07:37     17:00    Daglengte: 9:23 Vandaag
07:00
3.8 mm
1
warningclass
13:00
0.7 mm
1
19:00
25.1 mm
4
 07:36     17:02    Daglengte: 9:26 Morgen
01:00
34.5 mm
4
07:00
39.5 mm
2
13:00
46.5 mm
2
19:00
52.7 mm
3
 07:35     17:03    Daglengte: 9:28 Zaterdag 30 Jan
01:00
56.7 mm
3
07:00
71.2 mm
2
13:00
23.2 mm
1
19:00
84.7 mm
1
 07:34     17:05    Daglengte: 9:31 Zondag 31 Jan
01:00
146.1 mm
1
Locatie info
Region: Oberösterreich
Latitude: 47.7120°N
Longitude: 13.6257°E
470 masl
Postcode: 4820
Temp/Neerslag /Baro Onweer/DauwpuntSneeuw
    Temp Baro 1h Neerslag Dauwpunt Wind UV BewolkingSneeuw  
 07:37     17:00    Daglengte: 9:23 Vandaag
04:00
-0°
Voelt als: -2.5°
1015.3 hPa 1.3 mm
49%
-1.9°
2
Windvlaag: -0.7 m/s
91%43 cm warningclass
05:00
-0°
Voelt als: -2.2°
1015.1 hPa 1.0 mm
82%
-1.7°
2
Windvlaag: -0.4 m/s
91%43 cm warningclass
06:00
Voelt als: -2.0°
1014.4 hPa 0.8 mm
82%
-1.5°
2
Windvlaag: -0 m/s
91%44 cm warningclass
07:00
Voelt als: -1.4°
1013.9 hPa 0.8 mm
82%
-1.6°
1
Windvlaag: -0 m/s
91%44 cm warningclass
08:00
Voelt als: -1.0°
1013.3 hPa 0.7 mm
82%
-1.2°
1
Windvlaag: 0.4 m/s
91%44 cm warningclass
09:00
Voelt als: -0.4°
1012.6 hPa
82%
-0.5°
1
Windvlaag: 0.2 m/s
90%43 cm
10:00
Voelt als: 1.1°
1011.4 hPa
76%
0.4°
1
Windvlaag: 0.1 m/s
85%42 cm
11:00
Voelt als: 2.3°
1010.1 hPa
36%
1.0°
1
Windvlaag: 0 m/s
90%41 cm
12:00
Voelt als: 2.7°
1008.5 hPa
76%
1.4°
1
Windvlaag: 0.2 m/s
91%39 cm
13:00
Voelt als: 2.9°
1007.2 hPa
77%
1.6°
1
Windvlaag: 0.3 m/s
91%39 cm
14:00
Voelt als: 2.9°
1006.1 hPa 1.5 mm
81%
2.2°
1
Windvlaag: 0.6 m/s
91%40 cm
15:00
Voelt als: 2.3°
1005.7 hPa 3.1 mm
82%
2.3°
2
Windvlaag: 1.1 m/s
91%42 cm
16:00
Voelt als: 1.4°
1005.3 hPa 4.4 mm
82%
2.6°
2
Windvlaag: 0.5 m/s
91%42 cm
17:00
Voelt als: 0.9°
1004.9 hPa 5.1 mm
82%
2.5°
2
Windvlaag: 0 m/s
91%41 cm
18:00
Voelt als: 0.9°
1004.5 hPa 5.1 mm
82%
2.6°
3
Windvlaag: 0.4 m/s
90%40 cm
19:00
Voelt als: 1.4°
1004.3 hPa 5.8 mm
82%
3.4°
4
Windvlaag: -1.9 m/s
90%39 cm
20:00
Voelt als: 2.3°
1004.3 hPa 5.1 mm
82%
4.2°
4
Windvlaag: -1.9 m/s
89%38 cm
21:00
Voelt als: 2.4°
1004.5 hPa 5.0 mm
82%
4.3°
5
Windvlaag: -1.6 m/s
87%36 cm
22:00
Voelt als: 2.4°
1005.0 hPa 5.3 mm
82%
3.9°
6
Windvlaag: -2.2 m/s
84%35 cm
23:00
Voelt als: 2.1°
1005.1 hPa 5.9 mm
82%
3.7°
5
Windvlaag: -2.3 m/s
91%34 cm
 07:36     17:02    Daglengte: 9:26 Morgen
00:00
Voelt als: 2.4°
1005.8 hPa 6.7 mm
82%
4.3°
5
Windvlaag: -1.6 m/s
89%33 cm
01:00
Voelt als: 2.6°
1005.9 hPa 6.4 mm
82%
3.9°
4
Windvlaag: -1.8 m/s
91%32 cm
02:00
Voelt als: 2.8°
1006.2 hPa 6.3 mm
82%
3.6°
4
Windvlaag: -1.6 m/s
89%31 cm
03:00
Voelt als: 2.8°
1005.8 hPa 6.2 mm
82%
3.6°
3
Windvlaag: -1.4 m/s
82%31 cm
04:00
Voelt als: 2.9°
1004.9 hPa 8.4 mm
82%
3.7°
3
Windvlaag: -1.3 m/s
72%30 cm
05:00
Voelt als: 3.3°
1004.4 hPa 8.3 mm
82%
3.4°
2
Windvlaag: -1 m/s
73%29 cm
06:00
Voelt als: 3.1°
1003.6 hPa
82%
3.1°
2
Windvlaag: -0.4 m/s
85%29 cm
07:00
Voelt als: 3.1°
1002.8 hPa 10.2 mm
82%
3.0°
2
Windvlaag: 0.6 m/s
74%28 cm
08:00
Voelt als: 2.8°
1002.1 hPa 7.1 mm
82%
2.9°
2
Windvlaag: 2.3 m/s
91%28 cm
09:00
Voelt als: 3.6°
1001.2 hPa 6.7 mm
82%
3.0°
2
Windvlaag: 1.1 m/s
91%27 cm
10:00
Voelt als: 4.0°
1000.2 hPa 7.1 mm
82%
3.2°
1
Windvlaag: 0.4 m/s
91%27 cm
11:00
Voelt als: 4.3°
999.9 hPa 7.5 mm
82%
2.8°
1
Windvlaag: 1 m/s
90%26 cm
12:00
Voelt als: 4.1°
999.9 hPa 8.4 mm
82%
3.1°
2
Windvlaag: 0.9 m/s
91%25 cm
13:00
Voelt als: 2.8°
1000.6 hPa 9.7 mm
82%
3.6°
2
Windvlaag: 0.7 m/s
91%25 cm
14:00
Voelt als: 2.4°
1001.3 hPa 9.7 mm
82%
3.4°
3
Windvlaag: -0.4 m/s
91%26 cm
15:00
Voelt als: 2.0°
1001.4 hPa 9.7 mm
82%
2.7°
5
Windvlaag: -0.3 m/s
89%26 cm
16:00
Voelt als: 1.9°
1001.4 hPa
72%
2.3°
5
Windvlaag: -1.6 m/s
88%26 cm
17:00
Voelt als: 1.8°
1001.7 hPa 12.1 mm
70%
1.8°
4
Windvlaag: -2.9 m/s
88%25 cm
18:00
Voelt als: 2.2°
1001.8 hPa 8.9 mm
72%
1.7°
3
Windvlaag: -1.7 m/s
89%25 cm
19:00
Voelt als: 1.8°
1002.1 hPa 12.3 mm
82%
1.9°
3
Windvlaag: -1.8 m/s
86%25 cm
20:00
Voelt als: 1.6°
1002.4 hPa 9.1 mm
82%
2.0°
3
Windvlaag: -1.8 m/s
88%25 cm
21:00
Voelt als: 1.5°
1002.4 hPa 8.9 mm
82%
1.9°
3
Windvlaag: -1.1 m/s
84%25 cm
22:00
Voelt als: 1.2°
1003.0 hPa 9.2 mm
100%
1.3°
3
Windvlaag: -1.2 m/s
91%24 cm
23:00
Voelt als: 1.3°
1003.1 hPa 9.7 mm
100%
1.5°
2
Windvlaag: -1 m/s
97%25 cm
 07:35     17:03    Daglengte: 9:28 Zaterdag 30 Jan
00:00
Voelt als: 1.3°
1003.9 hPa 10.0 mm
100%
2.1°
2
Windvlaag: -0.9 m/s
99%25 cm
01:00
Voelt als: 0.4°
1004.6 hPa 9.9 mm
100%
2.5°
3
Windvlaag: -1.4 m/s
92%25 cm
02:00
Voelt als: 0.7°
1004.8 hPa 9.7 mm
100%
2.0°
3
Windvlaag: -1.1 m/s
90%26 cm
03:00
Voelt als: 0.7°
1004.6 hPa 13.7 mm
100%
1.4°
3
Windvlaag: -0.8 m/s
90%26 cm
04:00
Voelt als: 0.8°
1004.3 hPa 13.9 mm
100%
1.2°
3
Windvlaag: 0.6 m/s
85%27 cm
05:00
Voelt als: 0.9°
1004.1 hPa 10.0 mm
100%
1.5°
2
Windvlaag: 0.9 m/s
98%26 cm
06:00
Voelt als: 1.0°
1003.6 hPa 10.0 mm
100%
1.8°
2
Windvlaag: -0 m/s
92%27 cm
07:00
Voelt als: 1.7°
1003.0 hPa 13.9 mm
92%
1.7°
2
Windvlaag: 0 m/s
65%27 cm
08:00
Voelt als: 1.2°
1002.4 hPa
77%
1.3°
2
Windvlaag: 2.4 m/s
60%27 cm
09:00
Voelt als: 1.4°
1002.4 hPa
22%
1.5°
2
Windvlaag: 2.4 m/s
84%27 cm
10:00
Voelt als: 3.2°
1002.0 hPa
21%
1.1°
2
Windvlaag: 2.2 m/s
91%27 cm
11:00
Voelt als: 3.3°
1001.4 hPa 23.2 mm
21%
2.2°
2
Windvlaag: 2.1 m/s
87%26 cm
12:00
Voelt als: 4.0°
1000.4 hPa
21%
2.1°
2
Windvlaag: 1.9 m/s
71%25 cm
13:00
Voelt als: 5.4°
998.7 hPa
29%
1.4°
1
Windvlaag: 1.6 m/s
96%25 cm
14:00
Voelt als: 4.8°
997.4 hPa
33%
2.3°
1
Windvlaag: 1.6 m/s
95%24 cm
15:00
Voelt als: 4.1°
996.6 hPa
78%
2.6°
1
Windvlaag: 1.1 m/s
97%24 cm
16:00
Voelt als: 4.9°
995.8 hPa 23.2 mm
93%
2.0°
1
Windvlaag: 0.9 m/s
96%24 cm
17:00
Voelt als: 4.4°
995.5 hPa 23.4 mm
99%
1.9°
1
Windvlaag: 0.5 m/s
100%24 cm
18:00
Voelt als: 3.7°
995.3 hPa 14.3 mm
97%
2.1°
1
Windvlaag: 0.3 m/s
91%24 cm
19:00
Voelt als: 2.9°
995.3 hPa 23.8 mm
97%
2.1°
1
Windvlaag: 0.3 m/s
98%24 cm
20:00
995.6 hPa 23.9 mm
97%
1.9°
1
Windvlaag: 3.1 m/s
100%25 cm
21:00
Voelt als: 2.6°
996.0 hPa 24.0 mm
100%
1.8°
1
Windvlaag: 2.4 m/s
100%25 cm
22:00
996.4 hPa 24.2 mm
100%
1.7°
1
Windvlaag: 2.1 m/s
100%25 cm
23:00
996.7 hPa 24.5 mm
100%
1.6°
1
Windvlaag: 1.6 m/s
100%25 cm
 07:34     17:05    Daglengte: 9:31 Zondag 31 Jan
00:00
Voelt als: 1.8°
997.0 hPa 24.6 mm
100%
1.5°
1
Windvlaag: 1.9 m/s
100%25 cm
01:00
997.3 hPa 24.9 mm
100%
1.3°
1
Windvlaag: 0.2 m/s
100%25 cm
02:00
997.5 hPa 72.6 mm
100%
1.5°
0
Windvlaag: 1.4 m/s
100%25 cm
03:00
997.7 hPa 72.7 mm
100%
1.3°
1
Windvlaag: 2.6 m/s
100%26 cm
Temp/Neerslag /Baro Onweer/DauwpuntSneeuw
    Temp Baro Neerslag Dauwpunt Wind BewolkingSneeuw  
 07:37     17:00    Daglengte: 9:23 Vandaag
04:00
-0°
Voelt als: -2.5°
1015.3 hPa 1.3 mm -1.9°
2
91%43 cm warningclass
07:00
Voelt als: -1.4°
1013.9 hPa 2.5 mm -1.6°
1
91%44 cm warningclass
10:00
Voelt als: 1.1°
1011.4 hPa 0.7 mm 0.4°
1
85%42 cm
13:00
Voelt als: 2.9°
1007.2 hPa   1.6°
1
91%39 cm
16:00
Voelt als: 1.4°
1005.3 hPa 9.1 mm 2.6°
2
91%42 cm
19:00
Voelt als: 1.4°
1004.3 hPa 16.0 mm 3.4°
4
90%39 cm
22:00
Voelt als: 2.4°
1005.0 hPa 15.4 mm 3.9°
6
84%35 cm
 07:36     17:02    Daglengte: 9:26 Morgen
01:00
Voelt als: 2.6°
1005.9 hPa 19.1 mm 3.9°
4
91%32 cm
04:00
Voelt als: 2.9°
1004.9 hPa 21.0 mm 3.7°
3
72%30 cm
07:00
Voelt als: 3.1°
1002.8 hPa 18.5 mm 3.0°
2
74%28 cm
10:00
Voelt als: 4.0°
1000.2 hPa 20.9 mm 3.2°
1
91%27 cm
13:00
Voelt als: 2.8°
1000.6 hPa 25.6 mm 3.6°
2
91%25 cm
16:00
Voelt als: 1.9°
1001.4 hPa 19.4 mm 2.3°
5
88%26 cm
19:00
Voelt als: 1.8°
1002.1 hPa 33.3 mm 1.9°
3
86%25 cm
22:00
Voelt als: 1.2°
1003.0 hPa 27.1 mm 1.3°
3
91%24 cm
 07:35     17:03    Daglengte: 9:28 Zaterdag 30 Jan
01:00
Voelt als: 0.4°
1004.6 hPa 29.6 mm 2.5°
3
92%25 cm
04:00
Voelt als: 0.8°
1004.3 hPa 37.2 mm 1.2°
3
85%27 cm
07:00
Voelt als: 1.7°
1003.0 hPa 34.0 mm 1.7°
2
65%27 cm
10:00
Voelt als: 3.2°
1002.0 hPa   1.1°
2
91%27 cm
13:00
Voelt als: 5.4°
998.7 hPa 23.2 mm 1.4°
1
96%25 cm
16:00
Voelt als: 4.9°
995.8 hPa 23.2 mm 2.0°
1
96%24 cm
19:00
Voelt als: 2.9°
995.3 hPa 61.4 mm 2.1°
1
98%24 cm
22:00
996.4 hPa 72.1 mm 1.7°
1
100%25 cm
 07:34     17:05    Daglengte: 9:31 Zondag 31 Jan
01:00
997.3 hPa 74.0 mm 1.3°
1
100%25 cm
04:00
Voelt als: 1.3°
998.0 hPa 218.1 mm 1.1°
1
100%26 cm
07:00
Voelt als: 0.9°
998.8 hPa 221.7 mm 0.6°
1
100%27 cm warningclass
10:00
Voelt als: 2.2°
1001.1 hPa 62.6 mm 1.4°
1
92%
13:00
Voelt als: 2.4°
1001.6 hPa 64.1 mm 1.4°
1
92%
16:00
Voelt als: 2.2°
1001.8 hPa 64.3 mm 1.5°
1
87%
19:00
Voelt als: 1.9°
1002.1 hPa 64.3 mm 1.4°
1
82%
22:00
Voelt als: 1.3°
1000.8 hPa 64.3 mm 1.1°
1
80%
 07:32     17:07    Daglengte: 9:35 Maandag 01 Feb
01:00
Voelt als: 1.1°
999.5 hPa 64.3 mm 1.1°
1
79%
04:00
-0°
Voelt als: -1.7°
997.5 hPa 64.3 mm -1.1°
1
39% warningclass
07:00
-2°
Voelt als: -4.4°
995.8 hPa 64.3 mm -3.2°
2
0% warningclass
10:00
Voelt als: 1.4°
995.4 hPa 64.3 mm -1.5°
1
42%
13:00
Voelt als: 6.7°
994.9 hPa 64.4 mm -1.1°
1
83%
16:00
Voelt als: 5.2°
997.7 hPa 65.8 mm 0.2°
1
87%
19:00
1000.5 hPa 69.6 mm 1.0°
1
91%
22:00
Voelt als: 3.2°
1002.0 hPa 73.5 mm 1.2°
1
91%
 07:31     17:08    Daglengte: 9:37 Dinsdag 02 Feb
01:00
1003.4 hPa 76.5 mm 1.4°
1
92%
04:00
Voelt als: 1.5°
1007.4 hPa 78.1 mm 1.8°
1
91%
07:00
Voelt als: 0.6°
1011.4 hPa 78.7 mm 2.0°
2
91%
10:00
Voelt als: 1.4°
1013.7 hPa 78.8 mm 2.1°
2
91%
13:00
Voelt als: 2.3°
1015.9 hPa 78.8 mm 2.2°
1
91%
16:00
Voelt als: 1.7°
1015.3 hPa 79.7 mm 1.6°
1
91%
19:00
Voelt als: 1.1°
1014.9 hPa 81.4 mm 1.1°
1
92%
22:00
Voelt als: 0.4°
1013.3 hPa 81.8 mm 0.6°
2
92%
 07:30     17:10    Daglengte: 9:40 Woensdag 03 Feb
01:00
Voelt als: -0.2°
1011.6 hPa 82.2 mm 0.3°
2
92%
04:00
Voelt als: 0.7°
1010.1 hPa 84.0 mm 0.4°
2
92%
07:00
Voelt als: 1.5°
1008.5 hPa 86.1 mm 0.5°
1
92%
10:00
Voelt als: 3.8°
1008.1 hPa 86.5 mm 1.7°
1
91%
13:00
Voelt als: 6.2°
1007.4 hPa 86.5 mm 2.9°
1
90%
16:00
Voelt als: 4.8°
1008.1 hPa 86.5 mm 2.6°
1
68%
19:00
Voelt als: 3.3°
1009.0 hPa 86.5 mm 2.0°
1
46%
22:00
Voelt als: 3.3°
1010.5 hPa 86.5 mm 2.2°
2
57%
 07:28     17:11    Daglengte: 9:43 Donderdag 04 Feb
01:00
Voelt als: 3.5°
1012.0 hPa 172.9 mm 2.4°
2
69%
07:00
Voelt als: 4.3°
1013.8 hPa 173.0 mm 2.5°
1
57%
13:00
10°
Voelt als: 9.6°
1012.3 hPa 174.5 mm 1.5°
1
2%
19:00
Voelt als: 5.4°
1009.7 hPa 182.6 mm 0.9°
1
88%
 07:27     17:13    Daglengte: 9:46 Vrijdag 05 Feb
01:00
Voelt als: 1.0°
1007.9 hPa 203.3 mm 0.3°
2
78%
07:00
Voelt als: -0.6°
1009.1 hPa 211.3 mm -0.0°
2
87%
13:00
13°
1010.4 hPa 216.6 mm 2.8°
1
56%
19:00
Voelt als: 3.8°
1012.1 hPa 218.5 mm 0.6°
1
55%
 07:25     17:14    Daglengte: 9:49 Zaterdag 06 Feb
01:00
Voelt als: 0.9°
1012.9 hPa 220.2 mm 0.7°
2
36%
07:00
Voelt als: 0.1°
1013.2 hPa 221.3 mm -1.1°
1
52%
13:00
Voelt als: -1.5°
1027.9 hPa 223.2 mm -0.2°
2
1% warningclass
19:00
-3°
Voelt als: -4.1°
1029.3 hPa 224.5 mm -3.4°
1
1% warningclass
 07:24     17:16    Daglengte: 9:52 Zondag 07 Feb
01:00
-0°
1017.0 hPa 1.8 mm -1.0°
0
81%
07:00
-1°
1017.2 hPa 0.9 mm -2.2°
1
78%
13:00
Voelt als: 2.8°
1016.1 hPa 0.6 mm 0.9°
0
75%
19:00
-0°
Voelt als: -0.2°
1017.2 hPa 0.7 mm -1.3°
0
87%
 07:22     17:18    Daglengte: 9:56 Maandag 08 Feb
01:00
-2°
1018.1 hPa 0.6 mm -2.8°
1
81%
07:00
-2°
Voelt als: -2.5°
1017.6 hPa 0.3 mm -3.5°
1
81%
13:00
1016.2 hPa 0.3 mm 0.3°
1
83%
19:00
-1°
1017.4 hPa 0.7 mm -1.9°
0
85%
 07:21     17:19    Daglengte: 9:58 Dinsdag 09 Feb
01:00
-2°
1018.2 hPa 0.8 mm -3.5°
1
84%
07:00
-3°
Voelt als: -2.9°
1018.3 hPa 0.7 mm -4.3°
0
80%
13:00
1017.1 hPa 0.6 mm -0.7°
0
76%
19:00
-1°
1018.1 hPa 0.6 mm -2.4°
0
82%
 07:19     17:21    Daglengte: 10:02 Woensdag 10 Feb
01:00
-3°
Voelt als: -3.4°
1019.5 hPa 0.7 mm -4.0°
1
79%
07:00
-3°
Voelt als: -4.0°
1019.6 hPa 0.4 mm -4.9°
1
76%
13:00
1018.0 hPa 0.6 mm -1.1°
0
68%
19:00
-2°
Voelt als: -2.0°
1019.1 hPa 0.6 mm -3.4°
1
74%
 07:18     17:22    Daglengte: 10:04 Donderdag 11 Feb
01:00
-3°
Voelt als: -4.6°
1019.5 hPa 0.6 mm -4.9°
1
72%
07:00
-4°
1018.8 hPa 0.8 mm -5.6°
1
72%
13:00
1017.3 hPa 0.7 mm -1.5°
1
77%
19:00
-2°
1018.4 hPa   -3.6°
0
74%
 07:16     17:24    Daglengte: 10:08 Vrijdag 12 Feb
01:00
-4°
Voelt als: -5.2°
1018.9 hPa 0.7 mm -5.2°
1
73%
  CAPE Lifted Index Hail Supercell Tornado SRH 3km CL BTM PRES CL TOP PRES Swiss DWD icon SMHI TS
 07:37     17:00    Daglengte: 9:23 Vandaag
04:00 1 J/kg 5.4 K 0 % 0 % 0 % 0 m²/s² 0 0 8.07 71
05:00 1 J/kg 6.3 K 0 % 0 % 0 % 0 m²/s² 0 0 8.97 71
06:00 1 J/kg 6.5 K 0 % 0 % 0 % 0 m²/s² 0 0 10.19 71
07:00 1 J/kg 6.6 K 0 % 0 % 0 % 0 m²/s² 0 0 11.4 71
08:00 1 J/kg 7.4 K 0 % 0 % 0 % 0 m²/s² 0 0 12.47 71
09:00 1 J/kg 8.2 K 0 % 0 % 0 % 0 m²/s² 0 0 12.25 3
10:00 0 J/kg 8.5 K 0 % 0 % 0 % 0 m²/s² 0 0 10.36 3
11:00 0 J/kg 6.8 K 0 % 0 % 0 % 0 m²/s² 0 0 7.88 3
12:00 0 J/kg 5.7 K 0 % 0 % 0 % 0 m²/s² 0 0 6.54 3
13:00 0 J/kg 5.5 K 0 % 0 % 0 % 0 m²/s² 0 0 5.77 3
14:00 0 J/kg 5.2 K 0 % 0 % 0 % 0 m²/s² 0 0 5.44 61
15:00 0 J/kg 4.0 K 0 % 0 % 0 % 0 m²/s² 0 0 4.24 73
16:00 0 J/kg 2.9 K 0 % 0 % 0 % 0 m²/s² 0 0 3.23 73
17:00 0 J/kg 1.8 K 0 % 0 % 0 % 0 m²/s² 0 0 2.1 73
18:00 1 J/kg -0.6 K 0 % 0 % 0 % 0 m²/s² 0 0 -0.03 63
19:00 1 J/kg -1.7 K 0 % 0 % 0 % 0 m²/s² 0 0 -1.04 63
20:00 1 J/kg -0.7 K 0 % 0 % 0 % 0 m²/s² 0 0 -0.16 80
21:00 1 J/kg -0.1 K 0 % 0 % 0 % 0 m²/s² 0 0 0.17 80
22:00 1 J/kg 0.6 K 0 % 0 % 0 % 0 m²/s² 0 0 0.99 80
23:00 1 J/kg 1.2 K 0 % 0 % 0 % 0 m²/s² 0 0 1.53 80
 07:36     17:02    Daglengte: 9:26 Morgen
00:00 1 J/kg 1.9 K 0 % 0 % 0 % 0 m²/s² 0 0 2.35 80
01:00 1 J/kg 2.4 K 0 % 0 % 0 % 0 m²/s² 0 0 3.42 80
02:00 3 J/kg 2.5 K 0 % 0 % 0 % 0 m²/s² 0 0 4.09 80
03:00 5 J/kg 3.7 K 0 % 0 % 0 % 0 m²/s² 0 0 6.82 80
04:00 11 J/kg 4.8 K 0 % 0 % 0 % 0 m²/s² 0 0 8.94 80
05:00 8 J/kg 4.9 K 0 % 0 % 0 % 0 m²/s² 0 0 8.74 80
06:00 3 J/kg 3.9 K 0 % 0 % 0 % 0 m²/s² 0 0 4.29 61
07:00 0 J/kg 3.2 K 0 % 0 % 0 % 0 m²/s² 0 0 3.65 61
08:00 0 J/kg 3.1 K 0 % 0 % 0 % 0 m²/s² 0 0 4.36 61
09:00 0 J/kg 2.8 K 0 % 0 % 0 % 0 m²/s² 0 0 3.43 61
10:00 1 J/kg 2.7 K 0 % 0 % 0 % 0 m²/s² 0 0 3.18 61
11:00 3 J/kg 2.5 K 0 % 0 % 0 % 0 m²/s² 0 0 2.83 61
12:00 0 J/kg 3.0 K 0 % 0 % 0 % 0 m²/s² 0 0 3.42 80
13:00 1 J/kg 3.0 K 0 % 0 % 0 % 0 m²/s² 0 0 3.36 63
14:00 1 J/kg 0.9 K 0 % 0 % 0 % 0 m²/s² 0 0 1.29 63
15:00 1 J/kg 2.0 K 0 % 0 % 0 % 0 m²/s² 0 0 2.69 61
16:00 24 J/kg 3.9 K 0 % 0 % 0 % 0 m²/s² 0 0 6.84 3
17:00 51 J/kg 3.1 K 0 % 0 % 0 % 0 m²/s² 0 0 4.99 3
18:00 28 J/kg 3.0 K 0 % 0 % 0 % 0 m²/s² 0 0 5.13 3
19:00 12 J/kg 1.7 K 0 % 0 % 0 % 0 m²/s² 0 0 2.84 61
20:00 33 J/kg 1.3 K 0 % 0 % 0 % 0 m²/s² 0 0 2.68 80
21:00 3 J/kg 1.6 K 0 % 0 % 0 % 0 m²/s² 0 0 2.44 80
22:00 5 J/kg 1.2 K 0 % 0 % 0 % 0 m²/s² 0 0 1.95 61
23:00 1 J/kg 0.6 K 0 % 0 % 0 % 0 m²/s² 0 0 1.92 61
 07:35     17:03    Daglengte: 9:28 Zaterdag 30 Jan
00:00 1 J/kg 0.1 K 0 % 0 % 0 % 0 m²/s² 0 0 0.64 61
01:00 1 J/kg 1.4 K 0 % 0 % 0 % 0 m²/s² 0 0 2.12 61
02:00 1 J/kg 2.7 K 0 % 0 % 0 % 0 m²/s² 0 0 3.84 80
03:00 1 J/kg 3.8 K 0 % 0 % 0 % 0 m²/s² 0 0 6.2 61
04:00 0 J/kg 4.3 K 0 % 0 % 0 % 0 m²/s² 0 0 7.72 61
05:00 16 J/kg 6.0 K 0 % 0 % 0 % 0 m²/s² 0 0 8.19 61
06:00 1 J/kg 7.3 K 0 % 0 % 0 % 0 m²/s² 0 0 8.38 61
07:00 0 J/kg 8.8 K 0 % 0 % 0 % 0 m²/s² 0 0 10.03 2
08:00 0 J/kg 10.1 K 0 % 0 % 0 % 0 m²/s² 0 0 12.08 2
09:00 1 J/kg 11.3 K 0 % 0 % 0 % 0 m²/s² 0 0 13.82 2
10:00 8 J/kg 12.1 K 0 % 0 % 0 % 0 m²/s² 0 0 15.22 2
11:00 12 J/kg 12.5 K 0 % 0 % 0 % 0 m²/s² 0 0 16.19 3
12:00 19 J/kg 12.4 K 0 % 0 % 0 % 0 m²/s² 0 0 15.4 3
13:00 18 J/kg 11.6 K 0 % 0 % 0 % 0 m²/s² 0 0 13.67 3
14:00 12 J/kg 10.7 K 0 % 0 % 0 % 0 m²/s² 0 0 11.6 3
15:00 9 J/kg 8.6 K 0 % 0 % 0 % 0 m²/s² 0 0 8.81 3
16:00 0 J/kg 7.1 K 0 % 0 % 0 % 0 m²/s² 0 0 7.46 3
17:00 0 J/kg 6.3 K 0 % 0 % 0 % 0 m²/s² 0 0 6.6 61
18:00 0 J/kg 5.6 K 0 % 0 % 0 % 0 m²/s² 0 0 5.93 61
19:00 0 J/kg 5.3 K 0 % 0 % 0 % 0 m²/s² 0 0 5.63 3
20:00 1 J/kg 4.8 K 0 % 0 % 0 % 0 m²/s² 0 0 5.22 61
21:00 1 J/kg 4.5 K 0 % 0 % 0 % 0 m²/s² 0 0 4.77 61
22:00 1 J/kg 4.2 K 0 % 0 % 0 % 0 m²/s² 0 0 4.56 61
23:00 1 J/kg 3.9 K 0 % 0 % 0 % 0 m²/s² 0 0 4.23 61
 07:34     17:05    Daglengte: 9:31 Zondag 31 Jan
00:00 1 J/kg 3.7 K 0 % 0 % 0 % 0 m²/s² 0 0 4.12 61
01:00 1 J/kg 4.0 K 0 % 0 % 0 % 0 m²/s² 0 0 4.42 61
02:00 0 J/kg 3.9 K 0 % 0 % 0 % 0 m²/s² 0 0 4.32
03:00 2 J/kg 3.8 K 0 % 0 % 0 % 0 m²/s² 0 0 4.25
Temp Baro Wind Neerslag
  EWN Forecast EWN WRFDA DWD ICON FMI HIRLAM MET Norway GFS
 07:37     17:00    Daglengte: 9:23 Vandaag
04:00 -0.3° 1015.3 hPa 1.7 m/s 1.3 mm 1.7° 1011.3 hPa 4.6 m/s 2.0 mm -3.6° 1016.4 hPa 0.8 m/s 1.3 mm 2.5° 1015.1 hPa 4.4 m/s 0.0 mm -0.4° 1015.6 hPa 0.9 m/s -0.5° 1015.7 hPa 1.9 m/s
07:00 0.2° 1013.9 hPa 1.4 m/s 2.5 mm 2.1° 1009.4 hPa 2.8 m/s 8.2 mm -2.9° 1015.2 hPa 1.0 m/s 1.8 mm 3.1° 1014.1 hPa 2.5 m/s 0.0 mm 0.1° 1013.7 hPa 1.2 m/s -0.0° 1014.5 hPa 2.0 m/s
10:00 2.2° 1011.4 hPa 1.3 m/s 0.7 mm 4.0° 1007.0 hPa 3.1 m/s 9.5 mm -1.0° 1013.6 hPa 1.0 m/s 0.6 mm 3.1° 1011.2 hPa 0.9 m/s 0.0 mm 2.6° 1011.4 hPa 1.2 m/s 2.5° 1012.4 hPa 2.2 m/s
13:00 3.8° 1007.2 hPa 1.3 m/s 0.0 mm 4.5° 1003.5 hPa 4.8 m/s 10.5 mm 2.0° 1008.5 hPa 0.9 m/s 0.0 mm 3.8° 1007.2 hPa 1.6 m/s 0.0 mm 4.7° 1007.2 hPa 1.0 m/s 4.2° 1008.1 hPa 2.0 m/s
16:00 3.4° 1005.3 hPa 2.1 m/s 9.1 mm 5.5° 999.6 hPa 9.9 m/s 39.6 mm 0.6° 1006.2 hPa 1.2 m/s 4.0 mm 5.3° 1005.2 hPa 3.8 m/s 0.0 mm 3.4° 1006.1 hPa 0.9 m/s 4.1° 1005.2 hPa 2.5 m/s
19:00 4.4° 1004.3 hPa 3.5 m/s 16.0 mm 5.9° 999.3 hPa 10.0 m/s 70.8 mm 2.2° 1006.3 hPa 1.2 m/s 8.4 mm 7.1° 1005.1 hPa 8.6 m/s 0.0 mm 3.2° 1004.5 hPa 1.8 m/s 4.9° 1004.8 hPa 2.5 m/s
22:00 6.0° 1005.0 hPa 5.5 m/s 15.4 mm 6.0° 1000.6 hPa 11.3 m/s 82.5 mm 5.9° 1005.2 hPa 6.9 m/s 3.0 mm 7.4° 1005.7 hPa 7.5 m/s 0.0 mm 5.4° 1005.3 hPa 1.9 m/s 5.4° 1004.6 hPa 3.1 m/s
 07:36     17:02    Daglengte: 9:26 Morgen
01:00 5.8° 1005.9 hPa 4.4 m/s 19.1 mm 5.4° 1002.8 hPa 10.7 m/s 106.5 mm 5.7° 1006.0 hPa 4.8 m/s 2.6 mm 7.1° 1005.9 hPa 5.8 m/s 0.0 mm 5.4° 1006.8 hPa 1.7 m/s 5.2° 1006.6 hPa 2.9 m/s
04:00 5.2° 1004.9 hPa 2.9 m/s 21.0 mm 5.3° 1001.7 hPa 7.5 m/s 121.6 mm 5.7° 1006.1 hPa 2.5 m/s 1.6 mm 6.9° 1003.6 hPa 4.3 m/s 0.0 mm 4.4° 1005.1 hPa 1.5 m/s 5.2° 1005.9 hPa 2.0 m/s
07:00 4.4° 1002.8 hPa 1.6 m/s 18.5 mm 5.0° 999.7 hPa 4.3 m/s 125.4 mm 4.0° 1004.3 hPa 0.9 m/s 3.0 mm 5.4° 1000.5 hPa 1.8 m/s 0.0 mm 4.5° 1002.9 hPa 1.5 m/s 5.2° 1004.3 hPa 1.9 m/s
10:00 5.1° 1000.2 hPa 1.5 m/s 20.9 mm 5.4° 997.7 hPa 5.5 m/s 133.7 mm 3.1° 1001.9 hPa 1.0 m/s 2.8 mm 5.5° 996.5 hPa 1.4 m/s 0.0 mm 5.8° 1000.5 hPa 1.3 m/s 5.2° 1002.6 hPa 1.6 m/s
13:00 4.7° 1000.6 hPa 2.2 m/s 25.6 mm 5.0° 995.8 hPa 6.0 m/s 148.0 mm 4.6° 1001.2 hPa 2.4 m/s 5.7 mm 6.3° 996.3 hPa 5.4 m/s 0.0 mm 4.6° 1002.4 hPa 1.1 m/s 5.7° 1000.4 hPa 2.3 m/s
16:00 5.5° 1001.4 hPa 5.0 m/s 19.4 mm 4.7° 998.2 hPa 10.4 m/s 175.2 mm 4.5° 1003.0 hPa 6.4 m/s 3.1 mm 6.6° 996.8 hPa 5.9 m/s 0.0 mm 6.4° 1001.9 hPa 2.9 m/s 4.7° 1001.0 hPa 2.8 m/s
19:00 4.7° 1002.1 hPa 3.4 m/s 33.3 mm 4.4° 997.8 hPa 7.2 m/s 180.1 mm 4.0° 1002.6 hPa 3.4 m/s 0.5 mm 6.0° 995.9 hPa 2.9 m/s 0.0 mm 5.1° 1003.2 hPa 2.9 m/s 4.1° 1002.0 hPa 1.8 m/s
22:00 3.9° 1003.0 hPa 2.9 m/s 27.1 mm 3.8° 998.5 hPa 7.6 m/s 182.1 mm 3.4° 1003.3 hPa 2.8 m/s 1.8 mm 5.1° 1003.1 hPa 1.7 m/s 3.8° 1002.5 hPa 2.3 m/s
 07:35     17:03    Daglengte: 9:28 Zaterdag 30 Jan
01:00 3.4° 1004.6 hPa 3.2 m/s 29.6 mm 3.5° 999.3 hPa 8.6 m/s 188.9 mm 3.2° 1004.2 hPa 3.1 m/s 4.5 mm 3.7° 1005.0 hPa 1.6 m/s 3.5° 1003.1 hPa 2.4 m/s
04:00 3.4° 1004.3 hPa 2.7 m/s 37.2 mm 3.5° 998.9 hPa 9.9 m/s 198.8 mm 3.0° 1004.9 hPa 2.3 m/s 2.3 mm 4.4° 1004.5 hPa 1.5 m/s 3.5° 1003.1 hPa 2.4 m/s
07:00 3.2° 1003.0 hPa 1.6 m/s 34.0 mm 3.6° 998.5 hPa 9.3 m/s 204.8 mm 2.4° 1003.9 hPa 1.0 m/s 1.5 mm 3.5° 1003.0 hPa 0.9 m/s 3.5° 1002.6 hPa 2.7 m/s
10:00 4.5° 1002.0 hPa 1.7 m/s 0.0 mm 3.5° 998.3 hPa 8.7 m/s 207.2 mm 3.1° 1001.9 hPa 1.2 m/s 0.0 mm 5.7° 1002.9 hPa 0.6 m/s 4.1° 1002.4 hPa 2.5 m/s
13:00 6.0° 998.7 hPa 1.3 m/s 23.2 mm 4.0° 996.8 hPa 5.7 m/s 208.0 mm 5.5° 998.9 hPa 0.7 m/s 0.0 mm 6.9° 998.9 hPa 0.8 m/s 5.0° 1001.1 hPa 1.5 m/s
16:00 5.2° 995.8 hPa 1.1 m/s 23.2 mm 3.7° 993.6 hPa 1.9 m/s 208.3 mm 5.0° 995.4 hPa 0.9 m/s 0.1 mm 5.7° 996.6 hPa 1.0 m/s 3.8° 1000.1 hPa 0.5 m/s
19:00 3.3° 995.3 hPa 0.9 m/s 61.4 mm 2.9° 992.5 hPa 1.5 m/s 210.9 mm 2.9° 995.9 hPa 1.3 m/s 0.3 mm 3.7° 995.5 hPa 0.6 m/s 2.7° 1001.1 hPa 1.2 m/s
22:00 2.4° 996.4 hPa 0.5 m/s 72.1 mm 1.9° 991.0 hPa 1.4 m/s 214.8 mm 1.6° 997.1 hPa 0.4 m/s 0.8 mm 2.9° 997.0 hPa 0.4 m/s 2.3° 1000.9 hPa 0.9 m/s
 07:34     17:05    Daglengte: 9:31 Zondag 31 Jan
01:00 1.5° 997.3 hPa 0.6 m/s 74.0 mm 0.2° 990.8 hPa 1.3 m/s 217.0 mm 1.1° 997.6 hPa 0.8 m/s 2.5 mm 2.1° 998.4 hPa 0.3 m/s 1.2° 1000.9 hPa 0.4 m/s
04:00 1.3° 998.0 hPa 0.6 m/s 218.1 mm -1.5° 990.9 hPa 1.7 m/s 218.1 mm 1.8° 999.1 hPa 0.4 m/s 2.0° 1000.4 hPa 1.1 m/s
07:00 1.0° 998.8 hPa 0.7 m/s 221.7 mm -2.1° 992.5 hPa 1.6 m/s 221.7 mm 1.5° 999.9 hPa 0.6 m/s 1.8° 1000.7 hPa 1.0 m/s
10:00 2.2° 1001.1 hPa 0.7 m/s 62.6 mm 2.1° 1001.2 hPa 0.7 m/s 3.5° 1000.7 hPa 0.7 m/s 62.6 mm
13:00 2.5° 1001.6 hPa 0.8 m/s 64.1 mm 2.4° 1001.8 hPa 0.8 m/s 3.9° 999.9 hPa 0.8 m/s 64.1 mm
16:00 2.2° 1001.8 hPa 0.7 m/s 64.3 mm 2.1° 1002.1 hPa 0.7 m/s 3.9° 998.0 hPa 0.2 m/s 64.3 mm
19:00 1.9° 1002.1 hPa 0.7 m/s 64.3 mm 1.8° 1002.5 hPa 0.6 m/s 3.2° 997.7 hPa 1.8 m/s 64.3 mm
22:00 1.7° 1000.8 hPa 0.9 m/s 64.3 mm 1.9° 1001.2 hPa 0.8 m/s 0.6° 996.4 hPa 2.3 m/s 64.3 mm
 07:32     17:07    Daglengte: 9:35 Maandag 01 Feb
01:00 1.9° 999.5 hPa 1.1 m/s 64.3 mm 1.9° 1000.0 hPa 1.0 m/s 1.6° 994.6 hPa 1.8 m/s 64.3 mm
04:00 -0.1° 997.5 hPa 1.4 m/s 64.3 mm -0.1° 997.9 hPa 1.4 m/s -0.5° 993.6 hPa 1.3 m/s 64.3 mm
07:00 -1.9° 995.8 hPa 1.8 m/s 64.3 mm -2.1° 995.8 hPa 1.8 m/s -0.1° 995.5 hPa 1.3 m/s 64.3 mm
10:00 2.6° 995.4 hPa 1.4 m/s 64.3 mm 2.6° 995.2 hPa 1.5 m/s 3.4° 997.1 hPa 1.1 m/s 64.3 mm
13:00 6.9° 994.9 hPa 1.1 m/s 64.4 mm 7.2° 994.6 hPa 1.1 m/s 4.1° 998.8 hPa 1.3 m/s 64.4 mm
16:00 5.4° 997.7 hPa 0.9 m/s 65.8 mm 5.5° 997.4 hPa 0.9 m/s 3.7° 1001.0 hPa 1.4 m/s 65.8 mm
19:00 3.8° 1000.5 hPa 0.8 m/s 69.6 mm 3.8° 1000.1 hPa 0.7 m/s 3.5° 1005.3 hPa 1.3 m/s 69.6 mm
22:00 3.2° 1002.0 hPa 0.7 m/s 73.5 mm 3.2° 1001.4 hPa 0.6 m/s 3.4° 1009.1 hPa 1.3 m/s 73.5 mm
 07:31     17:08    Daglengte: 9:37 Dinsdag 02 Feb
01:00 2.7° 1003.4 hPa 0.6 m/s 76.5 mm 2.6° 1002.7 hPa 0.6 m/s 3.2° 1011.3 hPa 1.1 m/s 76.5 mm
04:00 2.8° 1007.4 hPa 1.5 m/s 78.1 mm 2.8° 1007.0 hPa 1.5 m/s 3.2° 1012.6 hPa 1.1 m/s 78.1 mm
07:00 3.0° 1011.4 hPa 2.3 m/s 78.7 mm 3.0° 1011.2 hPa 2.4 m/s 2.6° 1013.5 hPa 1.6 m/s 78.7 mm
10:00 3.2° 1013.7 hPa 1.9 m/s 78.8 mm 3.1° 1013.8 hPa 1.9 m/s 4.3° 1012.8 hPa 2.3 m/s 78.8 mm
13:00 3.4° 1015.9 hPa 1.4 m/s 78.8 mm 3.2° 1016.4 hPa 1.3 m/s 5.4° 1010.8 hPa 2.3 m/s 78.8 mm
16:00 3.0° 1015.3 hPa 1.4 m/s 79.7 mm 2.8° 1015.8 hPa 1.4 m/s 5.3° 1009.6 hPa 2.5 m/s 79.7 mm
19:00 2.5° 1014.9 hPa 1.5 m/s 81.4 mm 2.3° 1015.3 hPa 1.4 m/s 5.1° 1010.7 hPa 2.6 m/s 81.4 mm
22:00 2.1° 1013.3 hPa 1.7 m/s 81.8 mm 1.8° 1013.5 hPa 1.6 m/s 5.3° 1010.9 hPa 2.6 m/s 81.8 mm
 07:30     17:10    Daglengte: 9:40 Woensdag 03 Feb
01:00 1.7° 1011.6 hPa 1.8 m/s 82.2 mm 1.4° 1011.7 hPa 1.8 m/s 5.4° 1010.9 hPa 2.0 m/s 82.2 mm
04:00 2.3° 1010.1 hPa 1.6 m/s 84.0 mm 2.0° 1010.0 hPa 1.7 m/s 5.2° 1010.3 hPa 0.5 m/s 84.0 mm
07:00 2.9° 1008.5 hPa 1.5 m/s 86.1 mm 2.7° 1008.4 hPa 1.6 m/s 4.6° 1010.0 hPa 0.1 m/s 86.1 mm
10:00 4.7° 1008.1 hPa 1.4 m/s 86.5 mm 4.8° 1008.0 hPa 1.4 m/s 4.7° 1009.2 hPa 1.5 m/s 86.5 mm
13:00 6.7° 1007.4 hPa 1.3 m/s 86.5 mm 6.8° 1007.5 hPa 1.2 m/s 5.8° 1006.7 hPa 1.9 m/s 86.5 mm
16:00 5.6° 1008.1 hPa 1.3 m/s 86.5 mm 5.7° 1008.4 hPa 1.2 m/s 5.0° 1005.1 hPa 2.4 m/s 86.5 mm
19:00 4.4° 1009.0 hPa 1.4 m/s 86.5 mm 4.5° 1009.3 hPa 1.3 m/s 3.2° 1005.5 hPa 2.9 m/s 86.5 mm
22:00 4.9° 1010.5 hPa 1.9 m/s 86.5 mm 5.0° 1011.0 hPa 1.8 m/s 2.7° 1005.2 hPa 2.5 m/s 86.5 mm
 07:28     17:11    Daglengte: 9:43 Donderdag 04 Feb
01:00 5.4° 1012.0 hPa 2.3 m/s 86.5 mm 5.6° 1012.6 hPa 2.3 m/s 2.6° 1005.1 hPa 2.0 m/s 86.5 mm
07:00 4.9° 1013.8 hPa 1.2 m/s 86.6 mm 5.0° 1014.5 hPa 1.2 m/s 4.1° 1005.7 hPa 1.4 m/s 86.6 mm
13:00 9.6° 1012.3 hPa 0.7 m/s 87.6 mm 10.0° 1013.1 hPa 0.7 m/s 5.7° 1004.0 hPa 1.0 m/s 87.6 mm
19:00 5.9° 1009.7 hPa 1.2 m/s 93.3 mm 6.1° 1010.2 hPa 1.2 m/s 3.9° 1003.9 hPa 1.0 m/s 93.3 mm
 07:27     17:13    Daglengte: 9:46 Vrijdag 05 Feb
01:00 3.2° 1007.9 hPa 2.3 m/s 103.8 mm 3.2° 1007.9 hPa 2.5 m/s 3.4° 1007.8 hPa 0.3 m/s 103.8 mm
07:00 1.6° 1009.1 hPa 2.1 m/s 106.5 mm 1.6° 1008.8 hPa 2.1 m/s 2.1° 1012.5 hPa 1.8 m/s 106.5 mm
13:00 12.8° 1010.4 hPa 0.7 m/s 108.5 mm 13.8° 1009.7 hPa 0.6 m/s 1.8° 1017.7 hPa 1.7 m/s 108.5 mm
19:00 4.2° 1012.1 hPa 1.0 m/s 109.6 mm 4.6° 1011.2 hPa 1.0 m/s -0.5° 1022.4 hPa 1.1 m/s 109.6 mm
 07:25     17:14    Daglengte: 9:49 Zaterdag 06 Feb
01:00 2.4° 1012.9 hPa 1.5 m/s 110.3 mm 2.8° 1011.7 hPa 1.6 m/s -2.4° 1025.9 hPa 0.7 m/s 110.3 mm
07:00 1.6° 1013.2 hPa 1.5 m/s 110.8 mm 2.0° 1011.9 hPa 1.5 m/s -3.3° 1027.4 hPa 1.1 m/s 110.8 mm
13:00 0.3° 1027.9 hPa 1.6 m/s 111.9 mm 0.3° 1027.9 hPa 1.6 m/s 111.9 mm
19:00 -3.0° 1029.3 hPa 1.0 m/s 112.3 mm -3.0° 1029.3 hPa 1.0 m/s 112.3 mm
 07:24     17:16    Daglengte: 9:52 Zondag 07 Feb
01:00 -0.0° 1017.0 hPa 0.3 m/s 1.8 mm
07:00 -1.0° 1017.2 hPa 0.5 m/s 0.9 mm
13:00 2.8° 1016.1 hPa 0.3 m/s 0.6 mm
19:00 -0.2° 1017.2 hPa 0.3 m/s 0.7 mm
 07:22     17:18    Daglengte: 9:56 Maandag 08 Feb
01:00 -1.5° 1018.1 hPa 0.6 m/s 0.6 mm
07:00 -2.2° 1017.6 hPa 0.7 m/s 0.3 mm
13:00 2.5° 1016.2 hPa 0.5 m/s 0.3 mm
19:00 -0.7° 1017.4 hPa 0.3 m/s 0.7 mm
 07:21     17:19    Daglengte: 9:58 Dinsdag 09 Feb
01:00 -2.0° 1018.2 hPa 0.6 m/s 0.8 mm
07:00 -2.9° 1018.3 hPa 0.4 m/s 0.7 mm
13:00 1.6° 1017.1 hPa 0.4 m/s 0.6 mm
19:00 -1.2° 1018.1 hPa 0.3 m/s 0.6 mm
 07:19     17:21    Daglengte: 10:02 Woensdag 10 Feb
01:00 -2.7° 1019.5 hPa 0.8 m/s 0.7 mm
07:00 -3.5° 1019.6 hPa 0.8 m/s 0.4 mm
13:00 1.5° 1018.0 hPa 0.4 m/s 0.6 mm
19:00 -2.0° 1019.1 hPa 0.6 m/s 0.6 mm
 07:18     17:22    Daglengte: 10:04 Donderdag 11 Feb
01:00 -3.3° 1019.5 hPa 1.0 m/s 0.6 mm
07:00 -3.8° 1018.8 hPa 0.5 m/s 0.8 mm
13:00 1.2° 1017.3 hPa 0.7 m/s 0.7 mm
19:00 -2.3° 1018.4 hPa 0.4 m/s 0.0 mm
 07:16     17:24    Daglengte: 10:08 Vrijdag 12 Feb
01:00 -3.6° 1018.9 hPa 1.2 m/s 0.7 mm
FMI Hirlam - 7.5 km EWN WRFDA - 12 km DWD ICON - 7 km GFS - 25 km Basiskaart






























































Updatetijd (Europe/Amsterdam) Resolutie Lengte Stap
FMI Hirlam 01:00, 07:00, 13:00, 19:00 7.5 km 49h 1h
EWN WRFDA 03:30, 09:30, 15:30, 21:30 12 km 73h 1h
DWD ICON 22:45, 04:45, 10:45, 16:45 7 km 75h 1h
GFS 01:00, 07:00, 13:00, 19:00 25 km 237h 3h
30+ mm
25-30 mm
20-25 mm
15-20 mm
10-15 mm
6-10 mm
4-6 mm
2-4 mm
1-2 mm
0.5-1 mm
0.2-0.5 mm
0.1-0.2 mm
30+ mm
25-30 mm
20-25 mm
15-20 mm
10-15 mm
6-10 mm
4-6 mm
2-4 mm
1-2 mm
0.5-1 mm
0.2-0.5 mm
0.1-0.2 mm
Sneeuwval
Natte sneeuw
Hagel
Vorst
30+ mm
25-30 mm
20-25 mm
15-20 mm
10-15 mm
6-10 mm
4-6 mm
2-4 mm
1-2 mm
0.5-1 mm
0.2-0.5 mm
0.1-0.2 mm
Sneeuwval
Natte sneeuw
Hagel
Vorst
Onweer
50 mm
40 mm
30 mm
26 mm
22 mm
18 mm
14 mm
10 mm
9 mm
8 mm
7 mm
6 mm
5 mm
4.5 mm
4 mm
3.5 mm
3 mm
2.5 mm
2 mm
1.5 mm
1 mm
0.8 mm
0.6 mm
0.4 mm
0.2 mm
0.05 mm
35°
30°
25°
20°
15°
10°
-5°
-10°
-15°
-20°
-25°
-30°
-35°
33> m/s
29 m/s
25 m/s
21 m/s
17 m/s
14 m/s
11 m/s
8 m/s
5 m/s
3 m/s
0 m/s
2600 J/kg
2400 J/kg
2200 J/kg
2000 J/kg
1800 J/kg
1600 J/kg
1400 J/kg
1200 J/kg
1000 J/kg
800 J/kg
600 J/kg
400 J/kg
200 J/kg
70 dBZ
65 dBZ
60 dBZ
55 dBZ
50 dBZ
45 dBZ
40 dBZ
35 dBZ
30 dBZ
25 dBZ
20 dBZ
15 dBZ